"Pseudo-MPEC" for P110LJ9

Created 2020 May 26 13:07:19 UT using Find_Orb

Click here for an explanation of pseudo-MPECs

 
 Astrometry: 
     P110LJ9  C2020 05 21iYAstrometryYd.REq:rd4MHFK-%7M$u1SgS[0B:i,qQ`q)_BwW,F51
     P110LJ9  C2020 05 21e+.1redacted;0;jGCICTVd-7u),5click#hereJPNS5p+mVforJF51
     P110LJ9  C2020 05 21Re6bZexplanationZc#]`2:%?+T#7Ll:vBh*X85%o9W4Osnd6LGQF51

Station data:
(F51) Pan-STARRS 1, Haleakala  (N20.707235 W156.255910)  US/Hawaii.
   Observers N. Primak, A. Schultz, S. Watters, J. Thiel, T. Goggia. Measurer
   PS1 Science Consortium. 1.8-m Ritchey-Chrétien + CCD.

Orbital elements:  P110LJ9
   Perihelion 2019 Apr 16.854282 +/- 233 TT = 20:30:10 (JD 2458590.354282)
Epoch 2020 May 21.0 TT = JDT 2458990.5   Earth MOID: 0.7235   AutoNEOCP
M 164.72447659 +/- 130              (J2000 ecliptic)
n   0.41166122 +/- 0.256            Peri.  344.71477 +/- 80
a   1.78968284 +/- 0.741            Node    92.69879 +/- 35
e   0.0472368 +/- 0.278             Incl.   20.51800 +/- 27
P   2.39/874.49d           H 20.2   G  0.15   U 11.8  SR
q 1.70514377 +/- 0.834    Q 1.87422190 +/- 37.2
From 3 observations 2020 May 21 (36.7 min); mean residual 0".02
Residuals in arcseconds: 
200521 F51  .02+  .01-    200521 F51  .03-  .02+    200521 F51  .02+  .01-    

Ephemerides (geocentric):
Date (UTC) HH   RA              Dec         delta   r     elong  mag " sig PA
---- -- -- --  -------------   -----------  ------ ------ -----  --- ---- ---
2020 05 26 13  16 41 04.434   -02 19 01.69  .88780 1.8722 160.0 22.0  25d   1
2020 05 26 14  16 41 00.704   -02 19 28.46  .88774 1.8723 160.0 22.0  25d   1
2020 05 26 15  16 40 56.973   -02 19 55.27  .88769 1.8723 160.0 22.0  25d   1
2020 05 26 16  16 40 53.240   -02 20 22.11  .88763 1.8723 160.1 22.0  25d   1
2020 05 26 17  16 40 49.506   -02 20 48.99  .88758 1.8723 160.1 22.0  25d   1
2020 05 26 18  16 40 45.771   -02 21 15.90  .88752 1.8723 160.1 22.0  25d   1
2020 05 26 19  16 40 42.035   -02 21 42.85  .88747 1.8723 160.1 22.0  25d   1
2020 05 26 20  16 40 38.298   -02 22 09.83  .88741 1.8723 160.1 22.0  25d   1
2020 05 26 21  16 40 34.559   -02 22 36.85  .88736 1.8723 160.1 22.0  25d   1
2020 05 26 22  16 40 30.820   -02 23 03.90  .88731 1.8723 160.2 22.0  25d   1
2020 05 26 23  16 40 27.079   -02 23 30.98  .88725 1.8723 160.2 22.0  25d   1
2020 05 27 00  16 40 23.337   -02 23 58.10  .88720 1.8723 160.2 22.0  25d   1
2020 05 27 01  16 40 19.595   -02 24 25.25  .88715 1.8723 160.2 22.0  25d   1
2020 05 27 02  16 40 15.851   -02 24 52.44  .88710 1.8723 160.2 22.0  25d   1
2020 05 27 03  16 40 12.106   -02 25 19.67  .88705 1.8723 160.3 22.0  25d   1
2020 05 27 04  16 40 08.359   -02 25 46.92  .88700 1.8723 160.3 22.0  25d   1
2020 05 27 05  16 40 04.612   -02 26 14.21  .88694 1.8723 160.3 22.0  25d   1
2020 05 27 06  16 40 00.864   -02 26 41.54  .88689 1.8723 160.3 22.0  25d   1
2020 05 27 07  16 39 57.115   -02 27 08.90  .88685 1.8723 160.3 22.0  25d   0
2020 05 27 08  16 39 53.365   -02 27 36.30  .88680 1.8723 160.3 22.0  25d   0
2020 05 27 09  16 39 49.613   -02 28 03.72  .88675 1.8723 160.4 22.0  25d 179
2020 05 27 10  16 39 45.861   -02 28 31.19  .88670 1.8724 160.4 22.0  26d 179
2020 05 27 11  16 39 42.108   -02 28 58.69  .88665 1.8724 160.4 22.0  27d 178
2020 05 27 12  16 39 38.353   -02 29 26.22  .88660 1.8724 160.4 22.0  27d 178
2020 05 27 13  16 39 34.598   -02 29 53.78  .88656 1.8724 160.4 22.0  28d 178
2020 05 27 14  16 39 30.842   -02 30 21.38  .88651 1.8724 160.4 22.0  28d 179
2020 05 27 15  16 39 27.085   -02 30 49.02  .88646 1.8724 160.5 22.0  28d 179
2020 05 27 16  16 39 23.327   -02 31 16.69  .88642 1.8724 160.5 22.0  29d 179
2020 05 27 17  16 39 19.567   -02 31 44.39  .88637 1.8724 160.5 22.0  29d   0
2020 05 27 18  16 39 15.807   -02 32 12.13  .88633 1.8724 160.5 22.0  29d   0
2020 05 27 19  16 39 12.046   -02 32 39.90  .88628 1.8724 160.5 22.0  29d   0
2020 05 27 20  16 39 08.285   -02 33 07.70  .88624 1.8724 160.5 22.0  29d   0
2020 05 27 21  16 39 04.522   -02 33 35.54  .88619 1.8724 160.5 22.0  29d   0
2020 05 27 22  16 39 00.758   -02 34 03.41  .88615 1.8724 160.6 22.0  29d   0
2020 05 27 23  16 38 56.994   -02 34 31.32  .88611 1.8724 160.6 22.0  29d   0
2020 05 28 00  16 38 53.228   -02 34 59.26  .88607 1.8724 160.6 22.0  29d   0
2020 05 28 01  16 38 49.462   -02 35 27.24  .88602 1.8724 160.6 22.0  29d   0
2020 05 28 02  16 38 45.695   -02 35 55.25  .88598 1.8724 160.6 22.0  29d   0
2020 05 28 03  16 38 41.927   -02 36 23.29  .88594 1.8724 160.6 22.0  29d   1
2020 05 28 04  16 38 38.158   -02 36 51.36  .88590 1.8724 160.6 22.0  29d   1
2020 05 28 05  16 38 34.388   -02 37 19.48  .88586 1.8724 160.7 22.0  29d   1
2020 05 28 06  16 38 30.618   -02 37 47.62  .88582 1.8725 160.7 22.0  29d   1
2020 05 28 07  16 38 26.846   -02 38 15.80  .88578 1.8725 160.7 22.0  29d   1
2020 05 28 08  16 38 23.074   -02 38 44.01  .88574 1.8725 160.7 22.0  30d   1
2020 05 28 09  16 38 19.301   -02 39 12.25  .88570 1.8725 160.7 22.0  30d   1
2020 05 28 10  16 38 15.528   -02 39 40.53  .88566 1.8725 160.7 22.0  30d   1
2020 05 28 11  16 38 11.753   -02 40 08.84  .88562 1.8725 160.7 22.0  30d   1
2020 05 28 12  16 38 07.978   -02 40 37.19  .88559 1.8725 160.7 22.0  30d   1